When you browse on this site, cookies collect data to enhance your experience and personalize the content and advertising you see.
Visit our Privacy Policy to learn more. By continuing to use the site, you agree to this use of cookies and data.
  • în România
  • Lista ţărilor
  • Pe 7 zile
  • Temperatura apei
  • Meteo pe hartă
  • Widget-uri
  • user-avatar
    Intrare

    Meteo pe oră la Beverly

    Astăzi, 15 Decembrie, Duminică

    Timp Temperatura Precipitaţii Vânt Presiune Umiditate
    00:00 +2°C° 0 mm 5 m/s 735 mmHg 91%
    01:00 +2°C° 0.7 mm 6 m/s 735 mmHg 92%
    02:00 +2°C° 0.7 mm 6 m/s 735 mmHg 92%
    03:00 +3°C° 0.7 mm 7 m/s 734 mmHg 93%
    04:00 +2°C° 0.8 mm 7 m/s 735 mmHg 87%
    05:00 +1°C° 0.8 mm 8 m/s 736 mmHg 81%
    06:00 +1°C° 0 mm 8 m/s 737 mmHg 84%
    07:00 +2°C° 0 mm 7 m/s 738 mmHg 83%
    08:00 0°C° 0 mm 7 m/s 739 mmHg 82%
    09:00 0°C° 0 mm 7 m/s 740 mmHg 81%
    10:00 +2°C° 0 mm 6 m/s 741 mmHg 78%
    11:00 +3°C° 0 mm 6 m/s 741 mmHg 75%
    12:00 +4°C° 0 mm 6 m/s 742 mmHg 72%
    13:00 +3°C° 0 mm 6 m/s 742 mmHg 73%
    14:00 +3°C° 0 mm 6 m/s 743 mmHg 73%
    15:00 +2°C° 0 mm 5 m/s 743 mmHg 73%
    16:00 +2°C° 0.1 mm 6 m/s 743 mmHg 77%
    17:00 +2°C° 0.1 mm 6 m/s 743 mmHg 81%
    18:00 +2°C° 0.1 mm 6 m/s 744 mmHg 84%
    19:00 +2°C° 0 mm 7 m/s 744 mmHg 82%
    20:00 +2°C° 0 mm 7 m/s 744 mmHg 80%
    21:00 +3°C° 0 mm 7 m/s 745 mmHg 78%
    22:00 +3°C° 0 mm 7 m/s 745 mmHg 80%
    23:00 +3°C° 0 mm 7 m/s 745 mmHg 82%

    Mâine, 16 Decembrie, Luni

    Timp Temperatura Precipitaţii Vânt Presiune Umiditate
    00:00 +3°C° 0 mm 7 m/s 745 mmHg 83%
    01:00 +3°C° 0 mm 7 m/s 745 mmHg 84%
    02:00 +3°C° 0 mm 7 m/s 745 mmHg 84%
    03:00 +3°C° 0 mm 7 m/s 745 mmHg 85%
    04:00 +2°C° 0 mm 7 m/s 745 mmHg 86%
    05:00 +2°C° 0 mm 6 m/s 745 mmHg 87%
    06:00 +2°C° 0 mm 6 m/s 745 mmHg 88%
    07:00 +2°C° 0 mm 6 m/s 746 mmHg 86%
    08:00 +2°C° 0 mm 6 m/s 746 mmHg 84%
    09:00 +2°C° 0 mm 6 m/s 747 mmHg 81%
    10:00 +2°C° 0 mm 6 m/s 747 mmHg 78%
    11:00 +3°C° 0 mm 6 m/s 747 mmHg 75%
    12:00 +4°C° 0 mm 6 m/s 747 mmHg 72%
    13:00 +3°C° 0 mm 5 m/s 748 mmHg 74%
    14:00 +3°C° 0 mm 5 m/s 748 mmHg 77%
    15:00 +4°C° 0 mm 4 m/s 748 mmHg 79%
    16:00 +3°C° 0 mm 4 m/s 748 mmHg 82%
    17:00 +2°C° 0 mm 3 m/s 748 mmHg 85%
    18:00 +2°C° 0 mm 3 m/s 749 mmHg 88%
    19:00 +3°C° 0 mm 2 m/s 749 mmHg 88%
    20:00 +3°C° 0 mm 2 m/s 749 mmHg 88%
    21:00 +3°C° 0 mm 2 m/s 749 mmHg 88%
    22:00 +4°C° 0 mm 1 m/s 749 mmHg 88%
    23:00 +4°C° 0 mm 1 m/s 749 mmHg 88%

    Poimâine, 17 Decembrie, Marţi

    Timp Temperatura Precipitaţii Vânt Presiune Umiditate
    00:00 +4°C° 0 mm 1 m/s 749 mmHg 88%
    01:00 +4°C° 0 mm 1 m/s 749 mmHg 87%
    02:00 +4°C° 0 mm 1 m/s 749 mmHg 86%
    03:00 +4°C° 0 mm 1 m/s 749 mmHg 85%
    04:00 +4°C° 0 mm 1 m/s 748 mmHg 85%
    05:00 +4°C° 0 mm 1 m/s 748 mmHg 85%
    06:00 +4°C° 0 mm 1 m/s 748 mmHg 85%
    07:00 +3°C° 0 mm 2 m/s 748 mmHg 86%
    08:00 +3°C° 0 mm 2 m/s 748 mmHg 87%
    09:00 +4°C° 0 mm 2 m/s 748 mmHg 88%
    10:00 +4°C° 0.1 mm 2 m/s 747 mmHg 87%
    11:00 +5°C° 0.1 mm 2 m/s 747 mmHg 86%
    12:00 +4°C° 0.1 mm 3 m/s 746 mmHg 85%
    13:00 +4°C° 0.2 mm 3 m/s 746 mmHg 86%
    14:00 +4°C° 0.2 mm 3 m/s 746 mmHg 86%
    15:00 +4°C° 0.2 mm 3 m/s 746 mmHg 87%
    16:00 +4°C° 0.1 mm 3 m/s 746 mmHg 87%
    17:00 +3°C° 0.1 mm 3 m/s 747 mmHg 88%
    18:00 +3°C° 0.1 mm 3 m/s 747 mmHg 88%
    19:00 +3°C° 0.2 mm 3 m/s 747 mmHg 88%
    20:00 +2°C° 0.2 mm 3 m/s 748 mmHg 89%
    21:00 +3°C° 0.2 mm 2 m/s 749 mmHg 89%
    22:00 +2°C° 0.1 mm 3 m/s 749 mmHg 90%
    23:00 +1°C° 0.1 mm 3 m/s 749 mmHg 92%

    18 Decembrie, Miercuri

    Timp Temperatura Precipitaţii Vânt Presiune Umiditate
    00:00 0°C° 0.1 mm 4 m/s 750 mmHg 93%
    01:00 0°C° 0 mm 4 m/s 750 mmHg 93%
    02:00 +1°C° 0 mm 3 m/s 751 mmHg 92%
    03:00 0°C° 0 mm 3 m/s 751 mmHg 92%
    04:00 0°C° 0 mm 3 m/s 752 mmHg 92%
    05:00 0°C° 0 mm 3 m/s 752 mmHg 92%
    06:00 0°C° 0 mm 3 m/s 752 mmHg 91%
    07:00 0°C° 0 mm 3 m/s 753 mmHg 92%
    08:00 0°C° 0 mm 3 m/s 754 mmHg 92%
    09:00 0°C° 0 mm 3 m/s 754 mmHg 93%
    10:00 +1°C° 0 mm 3 m/s 754 mmHg 89%
    11:00 +2°C° 0 mm 3 m/s 755 mmHg 85%
    12:00 +3°C° 0 mm 3 m/s 755 mmHg 81%
    13:00 +3°C° 0 mm 3 m/s 754 mmHg 84%
    14:00 +2°C° 0 mm 3 m/s 754 mmHg 87%
    15:00 +3°C° 0 mm 2 m/s 754 mmHg 90%
    16:00 +2°C° 0 mm 3 m/s 753 mmHg 90%
    17:00 +1°C° 0 mm 3 m/s 753 mmHg 90%
    18:00 0°C° 0 mm 4 m/s 753 mmHg 90%
    19:00 0°C° 0 mm 4 m/s 753 mmHg 89%
    20:00 0°C° 0 mm 5 m/s 752 mmHg 88%
    21:00 -1°C° 0 mm 6 m/s 752 mmHg 86%
    22:00 +1°C° 0 mm 6 m/s 751 mmHg 86%
    23:00 0°C° 0 mm 7 m/s 750 mmHg 86%

    19 Decembrie, Joi

    Timp Temperatura Precipitaţii Vânt Presiune Umiditate
    00:00 +1°C° 0 mm 8 m/s 749 mmHg 86%
    01:00 +1°C° 0 mm 8 m/s 749 mmHg 86%
    02:00 +2°C° 0 mm 8 m/s 748 mmHg 85%
    03:00 +2°C° 0 mm 9 m/s 747 mmHg 85%
    04:00 +4°C° 0.4 mm 8 m/s 746 mmHg 89%
    05:00 +4°C° 0.4 mm 7 m/s 745 mmHg 92%
    06:00 +5°C° 0.4 mm 6 m/s 744 mmHg 95%
    07:00 +5°C° 1.4 mm 6 m/s 744 mmHg 96%
    08:00 +6°C° 1.4 mm 5 m/s 744 mmHg 96%
    09:00 +6°C° 1.4 mm 4 m/s 744 mmHg 97%
    10:00 +6°C° 0.1 mm 4 m/s 744 mmHg 97%
    11:00 +7°C° 0.1 mm 3 m/s 744 mmHg 97%
    12:00 +7°C° 0.1 mm 3 m/s 744 mmHg 97%
    13:00 +7°C° 0 mm 3 m/s 744 mmHg 97%
    14:00 +7°C° 0 mm 3 m/s 744 mmHg 97%
    15:00 +7°C° 0 mm 3 m/s 744 mmHg 96%
    16:00 +7°C° 0 mm 2 m/s 744 mmHg 95%
    17:00 +6°C° 0 mm 2 m/s 744 mmHg 94%
    18:00 +6°C° 0 mm 2 m/s 744 mmHg 93%
    19:00 +5°C° 0 mm 2 m/s 744 mmHg 93%
    20:00 +5°C° 0 mm 2 m/s 744 mmHg 92%
    21:00 +5°C° 0 mm 2 m/s 744 mmHg 92%
    22:00 +4°C° 0 mm 2 m/s 744 mmHg 92%
    23:00 +5°C° 0 mm 1 m/s 744 mmHg 91%

    20 Decembrie, Vineri

    Timp Temperatura Precipitaţii Vânt Presiune Umiditate
    00:00 +5°C° 0 mm 1 m/s 743 mmHg 91%
    01:00 +5°C° 0 mm 1 m/s 743 mmHg 90%
    02:00 +5°C° 0 mm 1 m/s 743 mmHg 90%
    03:00 +5°C° 0 mm 1 m/s 742 mmHg 89%
    04:00 +5°C° 0 mm 1 m/s 742 mmHg 89%
    05:00 +5°C° 0 mm 1 m/s 742 mmHg 89%
    06:00 +5°C° 0 mm 1 m/s 741 mmHg 89%
    07:00 +4°C° 0 mm 0 m/s 741 mmHg 90%
    08:00 +4°C° 0 mm 0 m/s 741 mmHg 90%
    09:00 +4°C° 0 mm 0 m/s 741 mmHg 91%
    10:00 +5°C° 0 mm 0 m/s 740 mmHg 89%
    11:00 +6°C° 0 mm 0 m/s 740 mmHg 88%
    12:00 +6°C° 0 mm 0 m/s 740 mmHg 86%
    13:00 +6°C° 0 mm 0 m/s 739 mmHg 88%
    14:00 +6°C° 0 mm 0 m/s 739 mmHg 90%
    15:00 +5°C° 0 mm 0 m/s 739 mmHg 91%
    16:00 +5°C° 0 mm 0 m/s 739 mmHg 92%
    17:00 +4°C° 0 mm 0 m/s 739 mmHg 93%
    18:00 +5°C° 0 mm 1 m/s 739 mmHg 93%
    19:00 +5°C° 0 mm 1 m/s 739 mmHg 93%
    20:00 +5°C° 0 mm 1 m/s 739 mmHg 93%
    21:00 +5°C° 0 mm 1 m/s 738 mmHg 93%
    22:00 +5°C° 0 mm 1 m/s 738 mmHg 93%
    23:00 +4°C° 0 mm 1 m/s 738 mmHg 93%
    Arată mai mult